User: anonymous   Login
Location: Unspecified
(0.0000°N, 0.0000°E)
Time: 02:05:01
(UTC+00:00)
Language:

UNISAT 6 - Orbit

View from above orbital plane
View from above orbital plane
View from above satellite
View from above satellite

Ground track
Ground track

The orbit data is extracted from the following two-line orbital elements,

1 40012U 14033C   18055.23993375  .00000142  00000-0  28885-4 0  9990
2 40012  97.8252 295.5859 0057885 201.8754 157.9983 14.73767385198062
Epoch (UTC): 24 February 2018 05:45:30
Eccentricity: 0.0057885
inclination: 97.8252°
perigee height: 608 km
apogee height: 690 km
right ascension of ascending node: 295.5859°
argument of perigee: 201.8754°
revolutions per day: 14.73767385
mean anomaly at epoch: 157.9983°
orbit number at epoch: 19806

The dashed part of the orbit path shows where the satellite is in the earth's shadow,  

DLR